7 * 24
多渠道服务支持
STARLINK-1506是美国太空探索技术公司SpaceX星链(Starlink)星座中的一颗低轨通信卫星,于2020年6月13日发射升空。作为星链互联网星座的组成部分,它运行在近地轨道,主要为全球提供高速宽带互联网服务,尤其覆盖偏远地区。该卫星属于SpaceX批量部署的星链卫星之一,依托星座组网实现全球网络覆盖,推动太空互联网基础设施建设。
美国
(US)
| 数据来源 | 国际轨道数据 |
| 星历时间: | 2026-05-24T06:02:41+0800 1天前 查看轨道信息 |
| 半长轴: | 6859.902km |
| 偏心率: | 0.0003307 |
| 轨道倾角: | 53.077° |
| 近地点辐角 | 118.161° |
| 升交点赤经 | 213.843° |
| 平近点角 | 241.973° |
| 近地点: | 479.496km |
| 远地点: | 484.034km |
| 周期: | 94.240分钟 |
| 每日圈数: | 15.280092 |